DLH1TZ EDDM-EDDV

Flight info

Callsign DLH1TZ
Flight time 0h 51m
Altitude 30000
Route INPUD3Q/08L INPUD Y102 UPALA M726 LASTO M852 BIRKA/N0395F240 T803 GITEX GITEX4R
Aircraft A319/M-SDE3FGHIRWY/LB1

Departure

Time 2026-05-01 10:38
Airport Munich Airport (EDDM)

Arrival

Time 2026-05-01 11:29
Airport Hannover Airport (EDDV)
Time Latitude Longitude Altitude Speed Heading
2026-05-01 10:07 48.35487 11.79278 1460 ft 0 kts 263°
2026-05-01 10:24 48.35488 11.79312 1457 ft 4 kts 270°
2026-05-01 10:25 48.35479 11.79390 1459 ft 4 kts 296°
2026-05-01 10:25 48.35444 11.79449 1462 ft 4 kts 335°
2026-05-01 10:26 48.35423 11.79459 1459 ft 1 kts 353°
2026-05-01 10:30 48.35487 11.79448 1470 ft 8 kts 354°
2026-05-01 10:30 48.35662 11.79419 1467 ft 15 kts 354°
2026-05-01 10:31 48.35838 11.79388 1461 ft 9 kts 354°
2026-05-01 10:31 48.35892 11.79374 1460 ft 0 kts 342°
2026-05-01 10:32 48.35910 11.79360 1465 ft 0 kts 334°
2026-05-01 10:33 48.35979 11.79339 1467 ft 10 kts 353°
2026-05-01 10:33 48.36075 11.79300 1464 ft 6 kts 307°
2026-05-01 10:34 48.36082 11.79214 1468 ft 11 kts 265°
2026-05-01 10:34 48.36071 11.79064 1468 ft 17 kts 264°
2026-05-01 10:34 48.36058 11.78871 1468 ft 19 kts 264°
2026-05-01 10:35 48.36029 11.78480 1467 ft 19 kts 263°
2026-05-01 10:35 48.36014 11.78284 1467 ft 19 kts 263°
2026-05-01 10:35 48.36000 11.78089 1465 ft 19 kts 263°
2026-05-01 10:35 48.35984 11.77897 1467 ft 18 kts 262°
2026-05-01 10:36 48.35954 11.77523 1467 ft 18 kts 264°
2026-05-01 10:36 48.35940 11.77337 1467 ft 19 kts 263°
2026-05-01 10:36 48.35926 11.77138 1467 ft 20 kts 268°
2026-05-01 10:37 48.35990 11.76991 1463 ft 17 kts 332°
2026-05-01 10:37 48.36237 11.76940 1467 ft 20 kts
2026-05-01 10:37 48.36301 11.77078 1471 ft 16 kts 82°
2026-05-01 10:38 48.36327 11.77403 1467 ft 63 kts 83°
2026-05-01 10:38 48.36403 11.78399 1463 ft 126 kts 83°
2026-05-01 10:38 48.36519 11.79933 1619 ft 159 kts 84°
2026-05-01 10:38 48.36641 11.81608 2282 ft 164 kts 84°
2026-05-01 10:39 48.36782 11.83373 2893 ft 178 kts 83°
2026-05-01 10:39 48.36967 11.85326 3281 ft 200 kts 83°
2026-05-01 10:39 48.37406 11.87471 3568 ft 233 kts 59°
2026-05-01 10:39 48.38774 11.89008 4049 ft 269 kts 20°
2026-05-01 10:40 48.40709 11.88895 4756 ft 295 kts 343°
2026-05-01 10:40 48.42481 11.87171 5469 ft 315 kts 314°
2026-05-01 10:40 48.43732 11.84417 6364 ft 319 kts 302°
2026-05-01 10:40 48.44819 11.81709 7287 ft 289 kts 304°
2026-05-01 10:41 48.45992 11.79314 8492 ft 278 kts 310°
2026-05-01 10:41 48.47194 11.77034 9404 ft 285 kts 312°
2026-05-01 10:41 48.49855 11.72331 10880 ft 300 kts 313°
2026-05-01 10:42 48.51323 11.70026 11414 ft 314 kts 325°
2026-05-01 10:42 48.53316 11.68522 11690 ft 331 kts 346°
2026-05-01 10:42 48.55588 11.67636 12173 ft 341 kts 353°
2026-05-01 10:42 48.57947 11.67044 12917 ft 346 kts 354°
2026-05-01 10:43 48.60338 11.66488 13690 ft 349 kts 355°
2026-05-01 10:43 48.62757 11.65949 14423 ft 353 kts 355°
2026-05-01 10:43 48.65199 11.65406 15103 ft 356 kts 355°
2026-05-01 10:43 48.67659 11.64851 15804 ft 359 kts 354°
2026-05-01 10:44 48.70137 11.64280 16485 ft 362 kts 354°
2026-05-01 10:44 48.72636 11.63700 17165 ft 365 kts 355°
2026-05-01 10:44 48.75156 11.63115 17827 ft 368 kts 355°
2026-05-01 10:44 48.77700 11.62529 18497 ft 371 kts 355°
2026-05-01 10:45 48.80264 11.61938 19099 ft 374 kts 355°
2026-05-01 10:45 48.82846 11.61338 19696 ft 377 kts 355°
2026-05-01 10:45 48.85445 11.60734 20295 ft 379 kts 355°
2026-05-01 10:45 48.88029 11.60136 20887 ft 382 kts 355°
2026-05-01 10:46 48.89806 11.59724 21289 ft 383 kts 355°
2026-05-01 10:46 48.93308 11.58910 22076 ft 386 kts 354°
2026-05-01 10:46 48.95976 11.58288 22651 ft 389 kts 354°
2026-05-01 10:46 48.98659 11.57660 23205 ft 391 kts 354°
2026-05-01 10:47 49.01357 11.57028 23766 ft 393 kts 354°
2026-05-01 10:47 49.03192 11.56598 24105 ft 395 kts 354°
2026-05-01 10:47 49.05914 11.55962 24539 ft 397 kts 354°
2026-05-01 10:47 49.08654 11.55322 24996 ft 400 kts 354°
2026-05-01 10:48 49.11377 11.54684 25382 ft 402 kts 354°
2026-05-01 10:48 49.14152 11.54032 25751 ft 406 kts 354°
2026-05-01 10:48 49.16950 11.53373 26143 ft 408 kts 353°
2026-05-01 10:48 49.19766 11.52704 26554 ft 411 kts 353°
2026-05-01 10:49 49.22597 11.52029 26977 ft 413 kts 353°
2026-05-01 10:49 49.25442 11.51352 27397 ft 415 kts 353°
2026-05-01 10:49 49.28305 11.50675 27809 ft 417 kts 353°
2026-05-01 10:49 49.31179 11.49999 28214 ft 419 kts 353°
2026-05-01 10:50 49.34074 11.49318 28620 ft 421 kts 353°
2026-05-01 10:50 49.36976 11.48637 29013 ft 424 kts 353°
2026-05-01 10:50 49.39897 11.47951 29387 ft 426 kts 353°
2026-05-01 10:50 49.42836 11.47256 29726 ft 429 kts 353°
2026-05-01 10:51 49.45790 11.46554 30072 ft 431 kts 353°
2026-05-01 10:51 49.48764 11.45843 30365 ft 433 kts 353°
2026-05-01 10:51 49.51713 11.45136 30413 ft 424 kts 353°
2026-05-01 10:52 49.57489 11.43752 30418 ft 418 kts 353°
2026-05-01 10:52 49.63235 11.42371 30416 ft 418 kts 353°
2026-05-01 10:53 49.68986 11.40994 30410 ft 418 kts 353°
2026-05-01 10:53 49.74735 11.39615 30412 ft 418 kts 353°
2026-05-01 10:54 49.80445 11.38234 30412 ft 418 kts 353°
2026-05-01 10:54 49.86230 11.36833 30392 ft 418 kts 353°
2026-05-01 10:55 49.91986 11.35430 30396 ft 419 kts 353°
2026-05-01 10:55 49.97710 11.34039 30397 ft 419 kts 353°
2026-05-01 10:56 50.03480 11.32638 30396 ft 419 kts 353°
2026-05-01 10:56 50.09244 11.31238 30399 ft 419 kts 353°
2026-05-01 10:57 50.15009 11.29820 30397 ft 419 kts 353°
2026-05-01 10:57 50.20777 11.28403 30398 ft 420 kts 353°
2026-05-01 10:58 50.26543 11.26987 30393 ft 420 kts 353°
2026-05-01 10:58 50.32316 11.25566 30393 ft 420 kts 353°
2026-05-01 10:59 50.38092 11.24139 30398 ft 420 kts 353°
2026-05-01 10:59 50.43874 11.22705 30397 ft 421 kts 353°
2026-05-01 11:00 50.49655 11.21272 30396 ft 421 kts 353°
2026-05-01 11:00 50.55437 11.19829 30386 ft 421 kts 353°
2026-05-01 11:01 50.61221 11.18390 30392 ft 421 kts 353°
2026-05-01 11:01 50.67010 11.16930 30397 ft 421 kts 352°
2026-05-01 11:02 50.72798 11.15474 30402 ft 421 kts 353°
2026-05-01 11:02 50.78592 11.14021 30408 ft 422 kts 352°
2026-05-01 11:03 50.84388 11.12554 30407 ft 422 kts 352°
2026-05-01 11:03 50.90151 11.10747 30412 ft 423 kts 349°
2026-05-01 11:04 50.95880 11.08579 30417 ft 423 kts 348°
2026-05-01 11:04 51.01612 11.06403 30417 ft 423 kts 348°
2026-05-01 11:05 51.07348 11.04303 30412 ft 423 kts 348°
2026-05-01 11:05 51.13092 11.02238 30407 ft 423 kts 348°
2026-05-01 11:06 51.18808 11.00167 30207 ft 425 kts 348°
2026-05-01 11:06 51.21692 10.99116 29914 ft 426 kts 348°
2026-05-01 11:06 51.24583 10.98058 29643 ft 427 kts 348°
2026-05-01 11:07 51.30384 10.95942 29073 ft 428 kts 349°
2026-05-01 11:07 51.33292 10.94878 28697 ft 429 kts 349°
2026-05-01 11:07 51.36193 10.93815 28295 ft 427 kts 348°
2026-05-01 11:07 51.39038 10.92461 27887 ft 426 kts 340°
2026-05-01 11:08 51.41779 10.90672 27496 ft 424 kts 340°
2026-05-01 11:08 51.44507 10.88894 27110 ft 423 kts 339°
2026-05-01 11:08 51.49935 10.85381 26350 ft 419 kts 340°
2026-05-01 11:09 51.52627 10.83637 25976 ft 417 kts 340°
2026-05-01 11:09 51.55309 10.81889 25602 ft 415 kts 340°
2026-05-01 11:09 51.57975 10.80143 25238 ft 413 kts 340°
2026-05-01 11:10 51.62836 10.75374 24405 ft 414 kts 315°
2026-05-01 11:10 51.64751 10.71924 23931 ft 413 kts 313°
2026-05-01 11:10 51.66640 10.68461 23375 ft 410 kts 313°
2026-05-01 11:10 51.68510 10.65013 22834 ft 408 kts 313°
2026-05-01 11:11 51.70372 10.61570 22283 ft 406 kts 313°
2026-05-01 11:11 51.72224 10.58144 21783 ft 404 kts 313°
2026-05-01 11:11 51.74068 10.54732 21272 ft 402 kts 313°
2026-05-01 11:11 51.75902 10.51339 20765 ft 400 kts 313°
2026-05-01 11:12 51.77727 10.47966 20269 ft 398 kts 313°
2026-05-01 11:12 51.79544 10.44607 19780 ft 396 kts 313°
2026-05-01 11:12 51.81350 10.41260 19300 ft 394 kts 312°
2026-05-01 11:12 51.83145 10.37927 18825 ft 392 kts 313°
2026-05-01 11:13 51.84932 10.34609 18306 ft 390 kts 312°
2026-05-01 11:13 51.86708 10.31310 17776 ft 388 kts 312°
2026-05-01 11:13 51.88476 10.28021 17255 ft 386 kts 312°
2026-05-01 11:13 51.90228 10.24756 16736 ft 384 kts 312°
2026-05-01 11:14 51.91967 10.21504 16229 ft 381 kts 312°
2026-05-01 11:14 51.93699 10.18254 15735 ft 380 kts 312°
2026-05-01 11:14 51.95423 10.15017 15248 ft 378 kts 311°
2026-05-01 11:14 51.97138 10.11801 14769 ft 376 kts 312°
2026-05-01 11:15 51.98845 10.08595 14292 ft 375 kts 311°
2026-05-01 11:15 52.00544 10.05396 13768 ft 373 kts 311°
2026-05-01 11:15 52.02229 10.02219 13256 ft 371 kts 311°
2026-05-01 11:15 52.03906 9.99055 12737 ft 368 kts 311°
2026-05-01 11:16 52.05570 9.95918 12232 ft 366 kts 311°
2026-05-01 11:16 52.07228 9.92794 11726 ft 363 kts 311°
2026-05-01 11:16 52.08869 9.89696 11241 ft 360 kts 311°
2026-05-01 11:16 52.10496 9.86616 10763 ft 358 kts 311°
2026-05-01 11:17 52.12114 9.83546 10277 ft 356 kts 311°
2026-05-01 11:17 52.13717 9.80498 9814 ft 353 kts 311°
2026-05-01 11:17 52.15301 9.77478 9350 ft 349 kts 311°
2026-05-01 11:17 52.16861 9.74501 8862 ft 340 kts 311°
2026-05-01 11:18 52.18370 9.71619 8357 ft 329 kts 310°
2026-05-01 11:18 52.19833 9.68823 7859 ft 319 kts 310°
2026-05-01 11:18 52.21253 9.66108 7373 ft 311 kts 310°
2026-05-01 11:18 52.22639 9.63458 6891 ft 302 kts 310°
2026-05-01 11:19 52.23985 9.60880 6398 ft 297 kts 310°
2026-05-01 11:19 52.25306 9.58348 5896 ft 297 kts 310°
2026-05-01 11:19 52.26650 9.55776 5398 ft 299 kts 310°
2026-05-01 11:19 52.28002 9.53207 4969 ft 296 kts 310°
2026-05-01 11:20 52.29323 9.50706 4572 ft 286 kts 310°
2026-05-01 11:20 52.30613 9.48254 4196 ft 283 kts 310°
2026-05-01 11:20 52.31888 9.45827 3812 ft 281 kts 310°
2026-05-01 11:20 52.33158 9.43417 3472 ft 279 kts 310°
2026-05-01 11:21 52.34419 9.41038 3317 ft 276 kts 310°
2026-05-01 11:21 52.35680 9.38667 3185 ft 276 kts 310°
2026-05-01 11:21 52.36928 9.36305 3064 ft 270 kts 310°
2026-05-01 11:21 52.38134 9.34022 2984 ft 257 kts 310°
2026-05-01 11:22 52.39263 9.31888 2999 ft 240 kts 310°
2026-05-01 11:22 52.40466 9.30091 2998 ft 233 kts 332°
2026-05-01 11:22 52.41997 9.29423 3003 ft 226 kts
2026-05-01 11:22 52.43490 9.29744 3001 ft 210 kts 22°
2026-05-01 11:23 52.44738 9.30834 3002 ft 201 kts 43°
2026-05-01 11:23 52.45637 9.32424 3027 ft 181 kts 61°
2026-05-01 11:23 52.46144 9.34188 2998 ft 162 kts 78°
2026-05-01 11:23 52.46315 9.35906 3005 ft 142 kts 93°
2026-05-01 11:24 52.46284 9.37469 3001 ft 133 kts 97°
2026-05-01 11:24 52.46249 9.38963 3010 ft 130 kts 97°
2026-05-01 11:24 52.46175 9.41926 3024 ft 132 kts 97°
2026-05-01 11:25 52.46137 9.43416 2982 ft 131 kts 97°
2026-05-01 11:25 52.46062 9.46393 2737 ft 131 kts 96°
2026-05-01 11:25 52.46024 9.47865 2555 ft 129 kts 97°
2026-05-01 11:26 52.45987 9.49344 2398 ft 129 kts 96°
2026-05-01 11:26 52.45910 9.52289 2058 ft 131 kts 96°
2026-05-01 11:26 52.45871 9.53757 1873 ft 127 kts 96°
2026-05-01 11:27 52.45834 9.55240 1782 ft 135 kts 95°
2026-05-01 11:27 52.45800 9.56829 1558 ft 142 kts 96°
2026-05-01 11:27 52.45760 9.58435 1336 ft 140 kts 96°
2026-05-01 11:27 52.45709 9.60007 1174 ft 138 kts 96°
2026-05-01 11:28 52.45679 9.61569 970 ft 133 kts 94°
2026-05-01 11:28 52.45638 9.63037 747 ft 127 kts 98°
2026-05-01 11:28 52.45605 9.64451 621 ft 119 kts 95°
2026-05-01 11:29 52.45518 9.67192 303 ft 128 kts 94°
2026-05-01 11:29 52.45473 9.68662 184 ft 124 kts 94°
2026-05-01 11:29 52.45420 9.70454 178 ft 30 kts 93°
2026-05-01 11:30 52.45454 9.70659 179 ft 19 kts 18°
2026-05-01 11:30 52.45569 9.70659 180 ft 14 kts 352°
2026-05-01 11:30 52.45591 9.70629 179 ft 4 kts 266°
2026-05-01 11:30 52.45588 9.70560 178 ft 10 kts 266°
2026-05-01 11:31 52.45589 9.70423 178 ft 13 kts 272°
2026-05-01 11:31 52.45590 9.70284 181 ft 12 kts 271°
2026-05-01 11:31 52.45595 9.70123 180 ft 16 kts 272°
2026-05-01 11:31 52.45601 9.69922 180 ft 18 kts 273°
2026-05-01 11:32 52.45671 9.69763 182 ft 18 kts 287°
2026-05-01 11:32 52.45683 9.69543 180 ft 20 kts 284°
2026-05-01 11:32 52.45753 9.69420 179 ft 13 kts 291°
2026-05-01 11:32 52.45788 9.69350 179 ft 3 kts 31°
2026-05-01 11:33 52.45816 9.69374 179 ft 5 kts 25°
2026-05-01 11:33 52.45833 9.69387 178 ft 0 kts 24°